Погода в Тавасе

Турция     37°34′29″N   29°03′54″E
темп.,
°C
ветер,
м/с
пор.,
м/с
влажн.,
%
обл.,
%
осадки,
мм/ч
давл.,
гПа
погр.,
м
27 октября, ср
ср2700:00+9всв11640 0.0 101910
03:00+8в11680 0.0 101810
06:00+7в11740 0.0 101810
09:00+11в11550 0.0 101980
12:00+15зюз12430 0.0 10191263
15:00+17зсз33399 0.0 10171700
18:00+14ссз224613 0.0 101853
21:00+11св22510 0.0 101913
28 октября, чт
чт2800:00+9св22510 0.0 102011
03:00+9св22530 0.0 102012
06:00+8всв22560 0.0 101913
09:00+11всв23480 0.0 1020111
12:00+16св33330 0.0 10191057
15:00+18ссв22270 0.0 10171598
18:00+14св33350 0.0 101834
21:00+11всв22400 0.0 101911
29 октября, пт
пт2900:00+9всв11440 0.0 101910
03:00+9всв22470 0.0 101911
06:00+8всв22510 0.0 101910
09:00+12всв22400 0.0 101967
12:00+17с11295 0.0 1018991
15:00+18ссз22250 0.0 10161518
18:00+14ссв33360 0.0 101720
21:00+11св22410 0.0 101811
30 октября, сб
сб3000:00+10св22450 0.0 101811
03:00+9всв22510 0.0 101811
06:00+8всв22530 0.0 101813
09:00+11всв22440 0.0 101890
12:00+17св22290 0.0 1018959
15:00+18с32260 0.0 10161644
18:00+13ссв33390 0.0 101720
21:00+10св22440 0.0 101910
31 октября, вс
вс3100:00+9всв11470 0.0 101910
03:00+8св22490 0.0 101910
06:00+7всв22520 0.0 101910
09:00+11всв12400 0.0 101960
12:00+16ссз11230 0.0 1018881
15:00+17зсз32190 0.0 10161353
18:00+12сз22280 0.0 101711
21:00+9юз00350 0.0 101910